Location: Asheville, NC
(35.6000°N, 82.5500°W)
Time: 23:14:41

STARS - Pass Details

Date: 18 March 2018
Orbit: 625 x 641 km, 98.3° (Epoch: 20 March)

Event Time Altitude Azimuth Distance (km) Brightness Sun altitude
Rises 06:47:46 0° 159° (SSE) 2,927 ? -10.8°
Reaches altitude 10° 06:49:59 10° 156° (SSE) 2,022 ? -10.3°
Maximum altitude 06:54:21 66° 75° (ENE) 700 ? -9.4°
Drops below altitude 10° 06:58:43 10° 354° (N) 2,031 ? -8.5°
Sets 07:00:56 0° 351° (N) 2,941 ? -8.1°
